www.pogodaiklimat.ru

Погода и климат >> Архив погоды >> Индия >> Чхаттисгарх >> Амбикапур


ПОГОДА в Амбикапуре

  • Прогноз погоды в Амбикапуре
  • Монитор погоды в Амбикапуре

АРХИВ ПОГОДЫ в Амбикапуре

Время (UTC), дата Ветер
(напр.,м/с)
 
Видим.   Явления Облачность Т
(С)
Тd
(С)
f
(%)
Тe
(С)
Тes
(С)
Комфортность P
(гПа)
Po
(гПа)
Тmin
(С)
Tmax
(С)
R
(мм)
R24
(мм)
S
(см)
18 11.08 штиль 0 4000 м {дождь} 8/6 600 м
[Sc Ac trans]
+25.2 +24.9 98 +36 +36 очень
душно
1002.2 935.5 12
21 11.08 штиль 0 4000 м 8/6 600 м
[Sc Ac trans]
+24.8 +24.5 98 +35 +35 очень
душно
1001.0 934.2 12
00 12.08 штиль 0 4000 м 9/8 600 м
[Sc Ac trans]
+24.6 +24.3 98 +34 +34 очень
душно
1000.8 934.0 12
03 12.08 СЗ 1 4000 м гроза, ливневой дождь 8/6 600 м
[Cb cap Ac trans]
+26.0 +24.9 94 +37 +40 очень
душно
1001.6 935.1 +24.2 12
06 12.08 С 1 4000 м {дождь} 8/5 750 м
[Sc Ac trans]
+25.0 +24.1 95 +34 +43 очень
душно
1002.1 935.4 6
09 12.08 С 2 4000 м слаб. дождь 8/5 600 м
[Sc Ac trans]
+25.8 +24.7 94 +37 +41 очень
душно
999.4 933.0 6
12 12.08 С 1 4000 м {дождь} 9/4 600 м
[Sc Ac trans]
+26.6 +24.9 90 +38 +38 очень
душно
998.2 932.0 +26.8 6
15 12.08 штиль 0 4000 м 9/5 750 м
[Sc Ac trans]
+26.0 +24.9 94 +37 +37 очень
душно
1001.0 934.4 6
18 12.08 штиль 0 4000 м 9/5 750 м
[Sc Ac trans]
+25.0 +24.1 95 +34 +34 очень
душно
1001.7 934.9 6
21 12.08 штиль 0 4000 м 9/5 750 м
[Sc Ac trans]
+24.6 +23.7 95 +33 +33 очень
душно
1000.7 933.9 6
00 13.08 штиль 0 4000 м {гроза, дождь} 10/5 600 м
[Sc As op]
+24.2 +24.2 100 +33 +33 очень
душно
998.4 931.7 41
03 13.08 СЗ 1 4000 м 9/5 360 м
[Frnb Ac trans]
+25.0 +24.4 96 +35 +38 очень
душно
1000.1 933.3 +23.4 41
06 13.08 СВ 1 4000 м 8/4 600 м
[Sc Ac trans]
+26.8 +25.1 90 +39 +48 очень
душно
999.5 933.1
09 13.08 СВ 1 4000 м {морось} 5/4 750 м
[Sc Ac trans]
+29.0 +24.8 78 +41 +50 опасность
перегрева
996.6 931.0 0.0
12 13.08 С 1 4000 м {морось} 6/5 750 м
[Sc Ac trans]
+29.2 +24.8 77 +42 +42 опасность
перегрева
995.4 930.0 +29.5 0.0
15 13.08 СВ 2 4000 м 9/5 600 м
[Sc Ac trans]
+25.6 +24.5 94 +36 +36 очень
душно
999.2 932.8 0.0
18 13.08 С 1 4000 м 8/5 750 м
[Sc Ac trans]
+25.0 +24.1 95 +34 +34 очень
душно
1000.9 934.1 0.0
21 13.08 штиль 0 4000 м 8/4 750 м
[Sc Ac trans]
+25.0 +24.1 95 +34 +34 очень
душно
1000.4 933.3 0.0
00 14.08 С 1 4000 м слаб. дождь 9/5 750 м
[Sc Ac trans]
+24.4 +23.8 96 +33 +33 очень
душно
999.4 932.7 4
03 14.08 штиль 0 4000 м слаб. дождь 10/6 300 м
[Frnb As op]
+23.8 +23.2 96 +32 +33 очень
душно
999.0 932.1 +23.2 18
06 14.08 штиль 0 4000 м {дождь} 6/4 750 м
[Sc Ac trans]
+25.2 +24.1 94 +35 +49 очень
душно
999.9 933.3 0.5
09 14.08 Ю 2 4000 м {дождь} 8/5 600 м
[Sc Ac trans]
+26.4 +23.6 85 +36 +41 очень
душно
998.5 932.3 0.6
12 14.08 Ю 2 4000 м {дождь} 8/5 600 м
[Sc Ac trans]
+25.8 +23.2 86 +35 +35 очень
душно
999.2 932.8 +26.8 1
15 14.08 штиль 0 4000 м {дождь} 8/4 750 м
[Sc Ac trans]
+24.6 +23.5 94 +33 +33 очень
душно
1002.5 935.5 1
18 14.08 штиль 0 4000 м 9/5 750 м
[Sc Ac trans]
+24.4 +23.3 94 +33 +33 очень
душно
1003.4 936.4 1
21 14.08 штиль 0 4000 м 8/4 600 м
[Sc Ac trans]
+24.0 +22.8 93 +32 +32 очень
душно
1002.9 935.7 1
00 15.08 штиль 0 4000 м в посл. час дождь 10/6 360 м
[Frnb As op]
+23.4 +22.8 96 +33 +33 очень
душно
1003.2 936.0 2
03 15.08 штиль 0 4000 м 8/5 750 м
[Sc Ac trans]
+25.2 +23.5 90 +34 +38 очень
душно
1004.5 937.6 +22.6 2
06 15.08 СЗ 1 4000 м 6/4 750 м
[Sc Ac trans]
+26.4 +23.6 85 +36 +48 очень
душно
1005.2 935.8
09 15.08 СЗ 1 4000 м 5/4 750 м
[Cu Sc Ac trans]
+28.2 +21.5 67 +36 +45 очень
душно
1003.6 937.4
12 15.08 СВ 1 4000 м 4/3 750 м
[Sc Ac trans]
+27.8 +23.2 76 +37 +38 очень
душно
1001.9 935.6 +28.3
15 15.08 штиль 0 4000 м 8/6 600 м
[Sc Ac trans]
+26.4 +23.6 85 +36 +36 очень
душно
1003.9 937.2
18 15.08 штиль 0 4000 м 8/6 600 м
[Sc Ac trans]
+24.8 +23.1 90 +33 +33 очень
душно
1005.5 938.4
21 15.08 штиль 0 4000 м 5/4 600 м
[Sc Ac trans]
+24.2 +23.3 95 +32 +32 очень
душно
1004.4 937.3
00 16.08 штиль 0 4000 м 5/3 750 м
[Sc Ac trans]
+23.8 +22.9 95 +32 +32 очень
душно
1004.8 937.5
03 16.08 штиль 0 4000 м 3/3 600 м
[Sc]
+26.0 +24.0 89 +36 +45 очень
душно
1005.1 938.2 +23.2
06 16.08 С 1 4000 м 4/4 750 м
[Sc]
+27.4 +24.0 82 +38 +53 опасность
солнечного
удара
1004.8 938.4
09 16.08 З 1 2000 м гроза, ливневой дождь 9/5 600 м
[Cb cap Ac trans]
+25.8 +24.1 90 +36 +40 очень
душно
1003.4 936.7 3
12 16.08 штиль 0 4000 м {гроза, дождь} 6/3 750 м
[Sc Ac trans]
+26.6 +24.4 88 +37 +38 очень
душно
1001.4 935.0 +29.6 5
15 16.08 штиль 0 4000 м 4/1 750 м
[Sc Ac trans]
+26.0 +25.2 95 +37 +37 очень
душно
1003.4 936.7 5
18 16.08 штиль 0 4000 м 6/4 750 м
[Sc Ac trans]
+25.0 +24.1 95 +34 +34 очень
душно
1004.8 937.7 5
21 16.08 штиль 0 4000 м 8/4 750 м
[Sc Ac trans]
+24.2 +23.3 95 +32 +32 очень
душно
1003.8 936.8 5
00 17.08 штиль 0 4000 м 3/0
[Ci fib]
+24.4 +23.8 96 +33 +33 очень
душно
1003.7 936.7 5
03 17.08 штиль 0 4000 м 4/0
[Ci fib]
+26.6 +24.4 88 +37 +49 очень
душно
1004.5 937.8 +23.6 5
06 17.08 З 1 4000 м 5/5 750 м
[Cu Sc]
+28.4 +24.2 78 +40 +52 опасность
солнечного
удара
1004.0 937.8
09 17.08 штиль 0 4000 м 5/5 750 м
[Cu Sc]
+30.4 +23.1 65 +41 +50 опасность
перегрева
1002.7 936.0
12 17.08 З 1 4000 м 5/5 750 м
[Cu Sc]
+30.2 +24.1 70 +42 +42 опасность
перегрева
1001.0 935.4 +30.5
15 17.08 штиль 0 4000 м зарница {гроза} 8/5 600 м
[Cb cap Ac trans]
+27.4 +24.3 83 +38 +38 очень
душно
1004.5 938.1
18 17.08 штиль 0 4000 м 6/4 600 м
[Sc Ac trans]
+26.0 +24.3 90 +36 +36 очень
душно
1005.7 938.8
21 17.08 штиль 0 4000 м 6/4 600 м
[Sc Ac trans]
+25.6 +24.2 92 +35 +35 очень
душно
1004.9 938.0
00 18.08 штиль 0 4000 м слаб. дождь 8/4 600 м
[Sc Ac trans]
+24.8 +23.7 94 +34 +34 очень
душно
1005.1 938.0 2
03 18.08 штиль 0 4000 м слаб. дождь 10/6 300 м
[Frnb As op]
+24.8 +24.2 96 +34 +35 очень
душно
1006.8 939.6 +23.8 8
06 18.08 штиль 0 4000 м слаб. дождь 10/6 300 м
[Frnb As op]
+25.2 +24.3 95 +35 +37 очень
душно
1006.5 939.5 0.7
09 18.08 штиль 0 4000 м слаб. дождь 10/6 360 м
[Frnb As op]
+26.0 +25.2 95 +37 +39 очень
душно
1004.6 937.7 2
12 18.08 штиль 0 4000 м гроза, ливневой дождь 10/5 600 м
[Cb cap As op]
+25.6 +25.3 98 +37 +37 очень
душно
1003.3 936.6 +26.0 7

 

Местоположение метеостанции Амбикапур (Чхаттисгарх, Индия): широта 23.17 долгота 83.25 высота над уровнем моря 611 м.

В архиве по умолчанию представлена погода в Амбикапуре за последнюю неделю. Архивные данные за месяц целиком и за предыдущие месяцы, начиная с января 2011 года, Вы можете получить, выбрав интересующий диапазон дат из раскрывающегося списка и нажав кнопку "Ввод!".


*Определитесь, кто Вы:
робот инопланетянин человек

Внимание! Время в таблицах - всемирное. Для получения местного времени необходимо прибавить поправку, которая равна 5.5 ч.

Смотрите также архив погоды в соседних городах и на ближайших метеорологических станциях:

Погода в Далтонгандже (Джаркханд, Индия) (129 км)
Погода в Сундаргархе (Орисса, Индия) (142 км)
Погода в Пендра-роуде (Чхаттисгарх, Индия) (145 км)
Погода в Биласпуре (Чхаттисгарх, Индия) (163 км)
Погода в Джхарсугуде (Орисса, Индия) (163 км)
Погода в Харакаде (Орисса, Индия) (194 км)
Погода в Райпур аэропорту (Чхаттисгарх, Индия) (195 км)
Погода в Сидхи (Мадхья-Прадеш, Индия) (198 км)
Погода в Самбалпуре (Орисса, Индия) (203 км)
Погода в Ранчи (Джаркханд, Индия) (212 км)

Пояснения к столбцам:

Ветер - указаны скорость ветра в м/с - средняя за 10 мин, порывы в срок и между сроками (в фигурных скобках) и направление, откуда дует ветер: С - северный, СВ - северо-восточный, В - восточный, ЮВ - юго-восточный, Ю - южный, ЮЗ - юго-западный, З - западный, СЗ - северо-западный.
Видимость - горизонтальная дальность видимости в метрах или километрах. При видимости от 1 до 10 км при отсутствии осадков обычно наблюдается дымка, при ухудшении видимости до 1 км и менее - туман. В сухую погоду видимость может ухудшаться дымом, пылью или мглою.
Явления - указаны атмосферные явления, наблюдавшиеся в срок или в последний час перед сроком; фигурными скобками обозначены явления, наблюдавшиеся между сроками (за 1-3 часа до срока); квадратными скобками обозначены град или гололедные отложения с указанием их диаметра в мм.
Облачность - указаны через наклонную черту общая и нижняя облачность в баллах и высота нижней границы облаков в метрах; квадратными скобками обозначены формы облаков: Ci - перистые, Cs - перисто-слоистые, Cc - перисто-кучевые, Ac - высококучевые, As - высокослоистые, Sc - слоисто-кучевые, Ns - слоисто-дождевые, Cu - кучевые, Cb - кучево-дождевые. Подробнее классификацию облаков см. в Атласе облаков (PDF).
T - Температура воздуха - температура, измеренная на высоте 2 м над землей.
Td - Температура точки росы - температура, при понижении до которой содержащийся в воздухе водяной пар достигнет насыщения.
f - Относительная влажность воздуха - влажноcть воздуха, измеренная на высоте 2 м над землей.
Te - Эффективная температура - температура, которую ощущает одетый по сезону человек в тени. Характеристика душности погоды. При расчете учитывается влияние влажности воздуха и скорости ветра на теплоощущения человека.
Tes - Эффективная температура на солнце - температура, которую ощущает человек, с поправкой на солнечный нагрев. Характеристика знойности погоды. Зависит от высоты солнца над горизонтом, облачности и скорости ветра. Ночью, в пасмурную погоду, а также при ветре 12 м/с и более поправка равна нулю.
P - Атмосферное давление - приведенное к уровню моря атмосферное давление.
Po - Атмосферное давление - измеренное на уровне метеостанции атмосферное давление.
Tmin - Минимальная температура - минимум температуры воздуха на высоте 2 м над землей.
Tmax - Максимальная температура - максимум температуры воздуха на высоте 2 м над землей.
R - Количество осадков - Количество выпавших осадков за период времени, мм. При наведении курсора мыши на число - период времени, за который выпало указанное количество осадков.
R24 - Количество осадков - Количество выпавших осадков за 24 часа, мм.
S - Снежный покров - Высота снежного покрова, см. При наведении курсора мыши на число - состояние снежного покрова и степень покрытия местности в баллах.